Time,TemperatureF,DewpointF,PressureIn,WindDirection,WindDirectionDegrees,WindSpeedMPH,WindSpeedGustMPH,Humidity,HourlyPrecipIn,Conditions,Clouds,dailyrainin,SoftwareType,DateUTC
2013-01-04 00:12:00,25.5,7.7,30.30,North,-999,0.0,2.7,46,0.00,,,-99.99,FreeWX 2.04,2013-01-04 05:12:00,
2013-01-04 00:22:00,25.3,7.5,30.30,North,-999,0.0,0.0,46,0.00,,,-99.99,FreeWX 2.04,2013-01-04 05:22:00,
2013-01-04 00:32:00,25.3,7.5,30.30,North,-999,0.0,3.1,46,0.00,,,-99.99,FreeWX 2.04,2013-01-04 05:32:00,
2013-01-04 00:42:00,25.2,7.3,30.30,North,-999,0.0,0.0,46,0.00,,,-99.99,FreeWX 2.04,2013-01-04 05:42:00,
2013-01-04 00:52:00,25.2,7.9,30.30,North,-999,0.0,4.5,47,0.00,,,-99.99,FreeWX 2.04,2013-01-04 05:52:00,
2013-01-04 01:02:00,25.0,7.7,30.30,North,-999,0.0,4.0,47,0.00,,,-99.99,FreeWX 2.04,2013-01-04 06:02:00,
2013-01-04 01:12:00,25.2,8.8,30.30,North,-999,0.0,3.6,49,0.00,,,-99.99,FreeWX 2.04,2013-01-04 06:12:00,
2013-01-04 01:22:00,25.2,9.1,30.30,North,-999,0.0,3.6,50,0.00,,,-99.99,FreeWX 2.04,2013-01-04 06:22:00,
2013-01-04 01:32:00,25.2,9.1,30.30,North,-999,0.0,2.7,50,0.00,,,-99.99,FreeWX 2.04,2013-01-04 06:32:00,
2013-01-04 01:42:00,25.5,9.5,30.30,North,-999,0.0,3.6,50,0.00,,,-99.99,FreeWX 2.04,2013-01-04 06:42:00,
2013-01-04 01:52:00,26.2,11.1,30.30,North,-999,0.0,4.9,52,0.00,,,-99.99,FreeWX 2.04,2013-01-04 06:52:00,
2013-01-04 02:02:00,26.8,11.5,30.30,North,-999,0.0,4.0,52,0.00,,,-99.99,FreeWX 2.04,2013-01-04 07:02:00,
2013-01-04 02:12:00,27.3,12.0,30.30,North,-999,0.0,3.1,52,0.00,,,-99.99,FreeWX 2.04,2013-01-04 07:12:00,
2013-01-04 02:22:00,27.5,11.8,30.30,North,-999,0.0,3.1,51,0.00,,,-99.99,FreeWX 2.04,2013-01-04 07:22:00,
2013-01-04 02:32:00,27.9,12.0,30.30,NNE,24,1.0,5.4,51,0.00,,,-99.99,FreeWX 2.04,2013-01-04 07:32:00,
2013-01-04 02:42:00,28.0,11.8,30.30,NNE,30,1.0,4.9,50,0.00,,,-99.99,FreeWX 2.04,2013-01-04 07:42:00,
2013-01-04 02:52:00,28.2,11.5,30.33,NNE,23,1.0,4.0,49,0.00,,,-99.99,FreeWX 2.04,2013-01-04 07:52:00,
2013-01-04 03:02:00,28.4,11.3,30.33,North,-999,0.0,4.0,48,0.00,,,-99.99,FreeWX 2.04,2013-01-04 08:02:00,
2013-01-04 03:12:00,28.4,11.3,30.33,North,-999,0.0,0.0,48,0.00,,,-99.99,FreeWX 2.04,2013-01-04 08:12:00,
2013-01-04 03:22:00,28.6,11.5,30.33,North,-999,0.0,3.6,48,0.00,,,-99.99,FreeWX 2.04,2013-01-04 08:22:00,
2013-01-04 03:32:00,28.8,11.1,30.33,North,-999,0.0,0.0,47,0.00,,,-99.99,FreeWX 2.04,2013-01-04 08:32:00,
2013-01-04 03:42:00,28.8,11.1,30.33,North,-999,0.0,0.0,47,0.00,,,-99.99,FreeWX 2.04,2013-01-04 08:42:00,
2013-01-04 03:52:00,28.8,11.1,30.30,North,-999,0.0,0.0,47,0.00,,,-99.99,FreeWX 2.04,2013-01-04 08:52:00,
2013-01-04 04:02:00,28.9,11.3,30.30,North,-999,0.0,0.0,47,0.00,,,-99.99,FreeWX 2.04,2013-01-04 09:02:00,
2013-01-04 04:12:00,28.9,11.3,30.30,North,-999,0.0,0.0,47,0.00,,,-99.99,FreeWX 2.04,2013-01-04 09:12:00,
2013-01-04 04:22:00,28.9,11.3,30.30,North,-999,0.0,0.0,47,0.00,,,-99.99,FreeWX 2.04,2013-01-04 09:22:00,
2013-01-04 04:32:00,28.9,11.3,30.30,North,-999,0.0,0.0,47,0.00,,,-99.99,FreeWX 2.04,2013-01-04 09:32:00,
2013-01-04 04:42:00,28.9,11.3,30.30,North,-999,0.0,3.1,47,0.00,,,-99.99,FreeWX 2.04,2013-01-04 09:42:00,
2013-01-04 04:52:00,29.1,11.8,30.30,North,-999,0.0,4.9,48,0.00,,,-99.99,FreeWX 2.04,2013-01-04 09:52:00,
2013-01-04 05:02:00,28.9,11.3,30.30,North,-999,0.0,0.0,47,0.00,,,-99.99,FreeWX 2.04,2013-01-04 10:02:00,
2013-01-04 05:12:00,29.1,11.8,30.30,North,-999,0.0,4.5,48,0.00,,,-99.99,FreeWX 2.04,2013-01-04 10:12:00,
2013-01-04 05:22:00,29.3,11.7,30.30,NE,52,1.0,6.7,47,0.00,,,-99.99,FreeWX 2.04,2013-01-04 10:22:00,
2013-01-04 05:32:00,29.3,11.1,30.30,North,-999,0.0,4.0,46,0.00,,,-99.99,FreeWX 2.04,2013-01-04 10:32:00,
2013-01-04 05:42:00,29.7,11.5,30.30,ENE,64,2.0,6.9,46,0.00,,,-99.99,FreeWX 2.04,2013-01-04 10:42:00,
2013-01-04 05:52:00,29.8,11.1,30.30,North,-999,0.0,4.9,45,0.00,,,-99.99,FreeWX 2.04,2013-01-04 10:52:00,
2013-01-04 06:02:00,30.0,10.8,30.30,North,-999,0.0,4.9,44,0.00,,,-99.99,FreeWX 2.04,2013-01-04 11:02:00,
2013-01-04 06:12:00,30.2,10.4,30.30,North,-999,0.0,4.5,43,0.00,,,-99.99,FreeWX 2.04,2013-01-04 11:12:00,
2013-01-04 06:22:00,30.2,10.4,30.30,North,-999,0.0,3.1,43,0.00,,,-99.99,FreeWX 2.04,2013-01-04 11:22:00,
2013-01-04 06:32:00,30.2,10.4,30.30,NE,38,1.0,5.8,43,0.00,,,-99.99,FreeWX 2.04,2013-01-04 11:32:00,
2013-01-04 06:42:00,30.4,9.5,30.30,NE,52,3.0,7.4,41,0.00,,,-99.99,FreeWX 2.04,2013-01-04 11:42:00,
2013-01-04 06:55:00,30.4,9.0,30.30,ENE,70,4.0,11.2,40,0.00,,,-99.99,FreeWX 2.04,2013-01-04 11:55:00,
2013-01-04 07:05:00,30.4,8.4,30.30,East,93,2.0,8.3,39,0.00,,,-99.99,FreeWX 2.04,2013-01-04 12:05:00,
2013-01-04 07:15:00,30.4,8.4,30.33,East,89,2.0,7.4,39,0.00,,,-99.99,FreeWX 2.04,2013-01-04 12:15:00,
2013-01-04 07:25:00,30.4,8.4,30.33,ENE,69,2.0,7.8,39,0.00,,,-99.99,FreeWX 2.04,2013-01-04 12:25:00,
2013-01-04 07:35:00,30.4,8.4,30.33,NE,37,1.0,6.7,39,0.00,,,-99.99,FreeWX 2.04,2013-01-04 12:35:00,
2013-01-04 07:45:00,30.4,8.4,30.33,ENE,71,2.0,6.3,39,0.00,,,-99.99,FreeWX 2.04,2013-01-04 12:45:00,
2013-01-04 07:55:00,30.4,8.4,30.33,North,-999,0.0,3.6,39,0.00,,,-99.99,FreeWX 2.04,2013-01-04 12:55:00,
2013-01-04 08:05:00,30.4,8.4,30.33,NE,55,1.0,7.4,39,0.00,,,-99.99,FreeWX 2.04,2013-01-04 13:05:00,
2013-01-04 08:15:00,30.6,8.1,30.33,ENE,73,3.0,6.9,38,0.00,,,-99.99,FreeWX 2.04,2013-01-04 13:15:00,
2013-01-04 08:25:00,30.6,8.6,30.33,ENE,62,2.0,6.3,39,0.00,,,-99.99,FreeWX 2.04,2013-01-04 13:25:00,
2013-01-04 08:35:00,30.7,8.2,30.33,East,95,4.0,7.4,38,0.00,,,-99.99,FreeWX 2.04,2013-01-04 13:35:00,
2013-01-04 08:45:00,30.9,7.7,30.33,ENE,75,3.0,10.1,37,0.00,,,-99.99,FreeWX 2.04,2013-01-04 13:45:00,
2013-01-04 08:55:00,31.1,7.9,30.33,NE,44,3.0,8.3,37,0.00,,,-99.99,FreeWX 2.04,2013-01-04 13:55:00,
2013-01-04 09:05:00,31.1,7.3,30.33,East,84,3.0,7.8,36,0.00,,,-99.99,FreeWX 2.04,2013-01-04 14:05:00,
2013-01-04 09:15:00,31.3,6.8,30.33,ESE,112,2.0,7.4,35,0.00,,,-99.99,FreeWX 2.04,2013-01-04 14:15:00,
2013-01-04 09:25:00,31.6,7.2,30.33,ESE,104,1.0,6.7,35,0.00,,,-99.99,FreeWX 2.04,2013-01-04 14:25:00,
2013-01-04 09:35:00,32.2,7.0,30.33,NE,52,3.0,7.4,34,0.00,,,-99.99,FreeWX 2.04,2013-01-04 14:35:00,
2013-01-04 09:45:00,32.5,7.3,30.36,NNE,32,2.0,6.3,34,0.00,,,-99.99,FreeWX 2.04,2013-01-04 14:45:00,
2013-01-04 09:55:00,32.7,6.1,30.36,NNE,31,4.0,7.8,32,0.00,,,-99.99,FreeWX 2.04,2013-01-04 14:55:00,
2013-01-04 10:05:00,33.1,6.4,30.36,NE,49,2.0,6.3,32,0.00,,,-99.99,FreeWX 2.04,2013-01-04 15:05:00,
2013-01-04 10:15:00,33.4,6.8,30.36,NNE,19,3.0,7.4,32,0.00,,,-99.99,FreeWX 2.04,2013-01-04 15:15:00,
2013-01-04 10:25:00,33.8,7.2,30.36,NE,50,2.0,6.7,32,0.00,,,-99.99,FreeWX 2.04,2013-01-04 15:25:00,
2013-01-04 10:35:00,34.0,6.6,30.36,ENE,63,4.0,8.7,31,0.00,,,-99.99,FreeWX 2.04,2013-01-04 15:35:00,
2013-01-04 10:45:00,34.5,7.0,30.36,ENE,69,4.0,10.1,31,0.00,,,-99.99,FreeWX 2.04,2013-01-04 15:45:00,
2013-01-04 10:55:00,35.1,6.8,30.36,NE,41,5.0,10.1,30,0.00,,,-99.99,FreeWX 2.04,2013-01-04 15:55:00,
2013-01-04 11:05:00,35.8,7.3,30.33,NE,46,3.0,11.0,30,0.00,,,-99.99,FreeWX 2.04,2013-01-04 16:05:00,
2013-01-04 11:21:00,36.9,7.7,30.33,East,88,6.0,12.1,29,0.00,,,-99.99,FreeWX 2.04,2013-01-04 16:21:00,
2013-01-04 11:36:00,38.1,8.8,30.33,East,82,5.0,12.5,29,0.00,,,-99.99,FreeWX 2.04,2013-01-04 16:36:00,
2013-01-04 11:46:00,39.2,7.2,30.33,East,96,4.0,7.8,26,0.00,,,-99.99,FreeWX 2.04,2013-01-04 16:46:00,
2013-01-04 11:56:00,38.5,6.6,30.33,ENE,68,5.0,14.8,26,0.00,,,-99.99,FreeWX 2.04,2013-01-04 16:56:00,
2013-01-04 12:06:00,38.8,7.0,30.33,ENE,72,5.0,13.4,26,0.00,,,-99.99,FreeWX 2.04,2013-01-04 17:06:00,
2013-01-04 12:16:00,39.6,7.5,30.33,East,90,4.0,9.6,26,0.00,,,-99.99,FreeWX 2.04,2013-01-04 17:16:00,
2013-01-04 12:26:00,40.3,8.2,30.33,ESE,107,4.0,6.9,26,0.00,,,-99.99,FreeWX 2.04,2013-01-04 17:26:00,
2013-01-04 12:36:00,40.6,8.4,30.33,East,88,5.0,11.6,26,0.00,,,-99.99,FreeWX 2.04,2013-01-04 17:36:00,
2013-01-04 12:46:00,39.6,7.5,30.30,NE,51,5.0,11.6,26,0.00,,,-99.99,FreeWX 2.04,2013-01-04 17:46:00,
2013-01-04 12:56:00,40.3,8.2,30.30,East,98,5.0,12.1,26,0.00,,,-99.99,FreeWX 2.04,2013-01-04 17:56:00,
2013-01-04 13:06:00,41.2,6.3,30.30,ESE,109,4.0,9.2,23,0.00,,,-99.99,FreeWX 2.04,2013-01-04 18:06:00,
2013-01-04 13:16:00,41.2,6.3,30.30,East,88,4.0,8.3,23,0.00,,,-99.99,FreeWX 2.04,2013-01-04 18:16:00,
2013-01-04 13:26:00,41.5,6.6,30.30,ESE,112,3.0,8.7,23,0.00,,,-99.99,FreeWX 2.04,2013-01-04 18:26:00,
2013-01-04 13:36:00,41.7,6.6,30.30,ENE,73,4.0,10.5,23,0.00,,,-99.99,FreeWX 2.04,2013-01-04 18:36:00,
2013-01-04 13:46:00,40.5,5.5,30.30,ENE,61,5.0,13.9,23,0.00,,,-99.99,FreeWX 2.04,2013-01-04 18:46:00,
2013-01-04 14:01:00,39.7,5.0,30.30,East,89,5.0,13.0,23,0.00,,,-99.99,FreeWX 2.04,2013-01-04 19:01:00,
2013-01-04 14:11:00,39.0,7.2,30.30,ENE,74,5.0,11.2,26,0.00,,,-99.99,FreeWX 2.04,2013-01-04 19:11:00,
2013-01-04 14:21:00,38.8,7.0,30.30,ENE,76,4.0,7.8,26,0.00,,,-99.99,FreeWX 2.04,2013-01-04 19:21:00,
2013-01-04 14:31:00,39.4,7.3,30.30,East,101,3.0,7.8,26,0.00,,,-99.99,FreeWX 2.04,2013-01-04 19:31:00,
2013-01-04 14:41:00,38.8,7.0,30.30,East,97,4.0,11.2,26,0.00,,,-99.99,FreeWX 2.04,2013-01-04 19:41:00,
2013-01-04 14:51:00,39.2,7.2,30.30,ESE,102,4.0,7.4,26,0.00,,,-99.99,FreeWX 2.04,2013-01-04 19:51:00,
2013-01-04 15:01:00,38.8,7.0,30.27,East,92,4.0,11.2,26,0.00,,,-99.99,FreeWX 2.04,2013-01-04 20:01:00,
2013-01-04 15:11:00,38.8,7.0,30.27,ESE,106,3.0,8.3,26,0.00,,,-99.99,FreeWX 2.04,2013-01-04 20:11:00,
2013-01-04 15:21:00,39.0,7.2,30.30,East,96,5.0,10.1,26,0.00,,,-99.99,FreeWX 2.04,2013-01-04 20:21:00,
2013-01-04 15:31:00,38.7,6.8,30.30,ENE,61,4.0,9.6,26,0.00,,,-99.99,FreeWX 2.04,2013-01-04 20:31:00,
2013-01-04 15:41:00,38.8,7.0,30.30,SE,130,4.0,11.0,26,0.00,,,-99.99,FreeWX 2.04,2013-01-04 20:41:00,
2013-01-04 15:51:00,37.9,6.1,30.30,East,101,5.0,13.0,26,0.00,,,-99.99,FreeWX 2.04,2013-01-04 20:51:00,
2013-01-04 16:01:00,37.0,5.4,30.30,East,82,4.0,9.6,26,0.00,,,-99.99,FreeWX 2.04,2013-01-04 21:01:00,
2013-01-04 16:11:00,36.7,5.0,30.30,East,80,3.0,10.1,26,0.00,,,-99.99,FreeWX 2.04,2013-01-04 21:11:00,
2013-01-04 16:21:00,36.9,5.2,30.30,NE,36,2.0,5.4,26,0.00,,,-99.99,FreeWX 2.04,2013-01-04 21:21:00,
2013-01-04 16:31:00,36.5,7.3,30.30,NE,37,3.0,8.3,29,0.00,,,-99.99,FreeWX 2.04,2013-01-04 21:31:00,
2013-01-04 16:41:00,36.1,7.0,30.30,ENE,65,4.0,9.2,29,0.00,,,-99.99,FreeWX 2.04,2013-01-04 21:41:00,
2013-01-04 16:51:00,35.6,7.3,30.30,ENE,77,3.0,8.3,30,0.00,,,-99.99,FreeWX 2.04,2013-01-04 21:51:00,
2013-01-04 17:01:00,35.2,7.0,30.30,East,92,3.0,6.9,30,0.00,,,-99.99,FreeWX 2.04,2013-01-04 22:01:00,
2013-01-04 17:11:00,35.1,6.8,30.30,East,83,4.0,9.2,30,0.00,,,-99.99,FreeWX 2.04,2013-01-04 22:11:00,
2013-01-04 17:21:00,34.9,6.6,30.30,East,95,3.0,8.7,30,0.00,,,-99.99,FreeWX 2.04,2013-01-04 22:21:00,
2013-01-04 17:31:00,34.7,7.2,30.33,ENE,74,4.0,9.2,31,0.00,,,-99.99,FreeWX 2.04,2013-01-04 22:31:00,
2013-01-04 17:41:00,34.5,7.0,30.33,ESE,110,3.0,6.9,31,0.00,,,-99.99,FreeWX 2.04,2013-01-04 22:41:00,
2013-01-04 17:51:00,34.5,7.0,30.33,SE,124,2.0,6.3,31,0.00,,,-99.99,FreeWX 2.04,2013-01-04 22:51:00,
2013-01-04 18:01:00,34.5,7.0,30.33,NE,54,2.0,6.7,31,0.00,,,-99.99,FreeWX 2.04,2013-01-04 23:01:00,
2013-01-04 18:11:00,34.7,7.2,30.33,ENE,75,3.0,8.3,31,0.00,,,-99.99,FreeWX 2.04,2013-01-04 23:11:00,
2013-01-04 18:21:00,34.3,7.5,30.33,NE,45,3.0,7.4,32,0.00,,,-99.99,FreeWX 2.04,2013-01-04 23:21:00,
2013-01-04 18:31:00,33.8,7.2,30.33,NE,53,2.0,7.4,32,0.00,,,-99.99,FreeWX 2.04,2013-01-04 23:31:00,
2013-01-04 18:41:00,33.6,7.0,30.33,East,80,3.0,6.9,32,0.00,,,-99.99,FreeWX 2.04,2013-01-04 23:41:00,
2013-01-04 18:51:00,33.1,6.4,30.33,NNE,20,1.0,5.4,32,0.00,,,-99.99,FreeWX 2.04,2013-01-04 23:51:00,
2013-01-04 19:01:00,33.1,7.2,30.33,East,101,1.0,4.5,33,0.00,,,-99.99,FreeWX 2.04,2013-01-05 00:01:00,
2013-01-04 19:11:00,32.7,6.8,30.33,North,-999,0.0,4.5,33,0.00,,,-99.99,FreeWX 2.04,2013-01-05 00:11:00,
2013-01-04 19:21:00,32.4,6.4,30.33,North,-999,0.0,4.0,33,0.00,,,-99.99,FreeWX 2.04,2013-01-05 00:21:00,
2013-01-04 19:31:00,31.6,6.4,30.33,North,-999,0.0,2.7,34,0.00,,,-99.99,FreeWX 2.04,2013-01-05 00:31:00,
2013-01-04 19:41:00,31.3,7.5,30.33,North,-999,0.0,2.7,36,0.00,,,-99.99,FreeWX 2.04,2013-01-05 00:41:00,
2013-01-04 19:51:00,30.7,8.8,30.33,North,-999,0.0,0.0,39,0.00,,,-99.99,FreeWX 2.04,2013-01-05 00:51:00,
2013-01-04 20:01:00,30.6,9.7,30.33,North,-999,0.0,0.0,41,0.00,,,-99.99,FreeWX 2.04,2013-01-05 01:01:00,
2013-01-04 20:11:00,30.4,9.0,30.33,North,-999,0.0,0.0,40,0.00,,,-99.99,FreeWX 2.04,2013-01-05 01:11:00,
2013-01-04 20:21:00,30.0,9.1,30.33,North,-999,0.0,3.6,41,0.00,,,-99.99,FreeWX 2.04,2013-01-05 01:21:00,
2013-01-04 20:31:00,29.8,9.0,30.33,North,-999,0.0,0.0,41,0.00,,,-99.99,FreeWX 2.04,2013-01-05 01:31:00,
2013-01-04 20:41:00,29.8,9.0,30.33,North,-999,0.0,0.0,41,0.00,,,-99.99,FreeWX 2.04,2013-01-05 01:41:00,
2013-01-04 20:51:00,29.5,8.8,30.33,North,-999,0.0,0.0,41,0.00,,,-99.99,FreeWX 2.04,2013-01-05 01:51:00,
2013-01-04 21:12:00,28.9,8.8,30.33,North,-999,0.0,0.0,42,0.00,,,-99.99,FreeWX 2.04,2013-01-05 02:12:00,
2013-01-04 21:22:00,28.8,8.6,30.33,North,-999,0.0,0.0,42,0.00,,,-99.99,FreeWX 2.04,2013-01-05 02:22:00,
2013-01-04 21:32:00,28.6,9.0,30.33,North,-999,0.0,0.0,43,0.00,,,-99.99,FreeWX 2.04,2013-01-05 02:32:00,
2013-01-04 21:42:00,28.2,8.6,30.33,North,-999,0.0,0.0,43,0.00,,,-99.99,FreeWX 2.04,2013-01-05 02:42:00,
2013-01-04 21:52:00,28.0,8.4,30.33,North,-999,0.0,0.0,43,0.00,,,-99.99,FreeWX 2.04,2013-01-05 02:52:00,
2013-01-04 22:02:00,27.9,9.3,30.33,North,-999,0.0,0.0,45,0.00,,,-99.99,FreeWX 2.04,2013-01-05 03:02:00,
2013-01-04 22:12:00,27.7,9.1,30.33,North,-999,0.0,0.0,45,0.00,,,-99.99,FreeWX 2.04,2013-01-05 03:12:00,
2013-01-04 22:22:00,27.5,9.0,30.33,North,-999,0.0,0.0,45,0.00,,,-99.99,FreeWX 2.04,2013-01-05 03:22:00,
2013-01-04 22:32:00,27.1,8.6,30.33,North,-999,0.0,0.0,45,0.00,,,-99.99,FreeWX 2.04,2013-01-05 03:32:00,
2013-01-04 22:42:00,26.8,7.9,30.33,North,-999,0.0,0.0,44,0.00,,,-99.99,FreeWX 2.04,2013-01-05 03:42:00,
2013-01-04 22:53:00,26.6,8.2,30.33,North,-999,0.0,0.0,45,0.00,,,-99.99,FreeWX 2.04,2013-01-05 03:53:00,
2013-01-04 23:03:00,26.6,8.2,30.33,North,-999,0.0,0.0,45,0.00,,,-99.99,FreeWX 2.04,2013-01-05 04:03:00,
2013-01-04 23:13:00,26.4,9.0,30.33,North,-999,0.0,0.0,47,0.00,,,-99.99,FreeWX 2.04,2013-01-05 04:13:00,
2013-01-04 23:23:00,26.4,9.0,30.36,North,-999,0.0,3.6,47,0.00,,,-99.99,FreeWX 2.04,2013-01-05 04:23:00,
2013-01-04 23:33:00,26.4,9.0,30.33,North,-999,0.0,0.0,47,0.00,,,-99.99,FreeWX 2.04,2013-01-05 04:33:00,
2013-01-04 23:43:00,26.2,8.8,30.33,North,-999,0.0,0.0,47,0.00,,,-99.99,FreeWX 2.04,2013-01-05 04:43:00,
2013-01-04 23:53:00,26.1,8.6,30.33,North,-999,0.0,0.0,47,0.00,,,-99.99,FreeWX 2.04,2013-01-05 04:53:00,